This is the latest recevied weather packets stored in our database for station/object F6BIJ-13. If no packets are shown the sender has not sent any weather packets the latest 10 day(s).
| Time | Temp. | Humidity | Pressure | Rain* | Wind** | Luminosity | Snow |
|---|---|---|---|---|---|---|---|
| 1777615597 | 13.33° C | 57% | 1024.7 hPa | 0 mm | - | - | - |
| 1777615237 | 13.33° C | 58% | 1024.8 hPa | 0 mm | - | - | - |
| 1777614877 | 12.78° C | 59% | 1024.6 hPa | 0 mm | - | - | - |
| 1777614517 | 12.22° C | 63% | 1024.6 hPa | 0 mm | - | - | - |
| 1777614157 | 11.67° C | 67% | 1024.5 hPa | 0 mm | - | - | - |
| 1777613797 | 11.11° C | 77% | 1024.4 hPa | 0 mm | - | - | - |
| 1777613437 | 10.56° C | 81% | 1024.3 hPa | 0 mm | - | - | - |
| 1777613077 | 10° C | 84% | 1024.3 hPa | 0 mm | - | - | - |
| 1777612717 | 10° C | 85% | 1024.2 hPa | 0 mm | - | - | - |
| 1777612357 | 10° C | 85% | 1024 hPa | 0 mm | - | - | - |
| 1777611997 | 9.44° C | 85% | 1024 hPa | 0 mm | - | - | - |
| 1777611637 | 9.44° C | 86% | 1023.8 hPa | 0 mm | - | - | - |
| 1777611277 | 9.44° C | 86% | 1023.8 hPa | 0 mm | - | - | - |
| 1777610918 | 10° C | 85% | 1023.8 hPa | 0 mm | - | - | - |
| 1777610558 | 9.44° C | 84% | 1023.7 hPa | 0 mm | - | - | - |
| 1777610197 | 9.44° C | 85% | 1023.7 hPa | 0 mm | - | - | - |
| 1777609837 | 9.44° C | 85% | 1023.7 hPa | 0 mm | - | - | - |
| 1777609477 | 9.44° C | 85% | 1023.7 hPa | 0 mm | - | - | - |
| 1777609117 | 9.44° C | 86% | 1023.6 hPa | 0 mm | - | - | - |
| 1777608757 | 9.44° C | 87% | 1023.6 hPa | 0 mm | - | - | - |
| 1777608397 | 9.44° C | 87% | 1023.7 hPa | 0 mm | - | - | - |
| 1777608038 | 9.44° C | 85% | 1023.6 hPa | 0 mm | - | - | - |
| 1777607677 | 9.44° C | 86% | 1023.7 hPa | 0 mm | - | - | - |
| 1777607318 | 10° C | 87% | 1023.7 hPa | 0 mm | - | - | - |
| 1777606957 | 9.44° C | 88% | 1023.7 hPa | 0 mm | - | - | - |
* Rain latest 24 hours (hover to see other rain measurements)
** Current wind speed in m/s (hover to see current wind gust speed)